Tracking 31027 objects as of 19-Jul-2025
HD Live streaming from Space Station
objects crossing your sky now

COSMOS 1823 DEB

Track COSMOS 1823 DEB now!
10-day predictions


NORAD ID: 18751
Int'l Code: 1987-020AC
Perigee: 1,484.1 km
Apogee: 1,603.2 km
Inclination: 73.6 °
Period: 116.8 minutes
Semi major axis: 7914 km
RCS: 0.1997 m2 (medium)
Launch date: February 20, 1987
Source: Commonwealth of Independent States (former USSR) (CIS)
Launch site: PLESETSK MISSILE AND SPACE COMPLEX (PKMTR)

Note: This is SATELLITE DEBRIS
Your satellite tracking list
Your tracking list is empty




NASA's NSSDC Master Catalog

Two Line Element Set (TLE):
1 18751U 87020AC  25199.48276204 -.00000115  00000-0 -79772-3 0  9992
2 18751  73.6289  98.9746 0075268 269.1167 264.6245 12.32975016691092
Source of the keplerian elements: AFSPC